INTELSAT 37E (IS-37E)

Last updated on Thu Oct 30 2025 00:02:51 GMT+0000 (Coordinated Universal Time)

1 42950U 17059A 25302.35183595 -.00000131 00000+0 00000+0 0 9997 2 42950 0.0164 255.8784 0002951 321.6250 289.1114 1.00270110 29759
UTC large
Height (km)
Speed (km/s)
/
Latitude / Longitude
Inclination (degrees)
Orbital Period (minutes)
Azimuth
Elevation
Range (km)
Doppler Factor

Next 0 passes for location: London (51.5072 / 0.1276)

Sorry there are no passes over London.